Time,TemperatureF,DewpointF,PressureIn,WindDirection,WindDirectionDegrees,WindSpeedMPH,WindSpeedGustMPH,Humidity,HourlyPrecipIn,Conditions,Clouds,dailyrainin,SoftwareType,DateUTC
2013-03-21 00:00:00,57.6,54.1,29.81,NW,326,0.0,0.0,88,0.00,,,0.30,Wunderground v.1.15,2013-03-21 04:00:00,
2013-03-21 00:01:00,57.5,54.0,29.80,NW,326,0.0,0.0,88,0.00,,,0.30,Wunderground v.1.15,2013-03-21 04:01:00,
2013-03-21 00:05:00,57.5,54.0,29.80,NW,326,0.0,0.0,88,0.00,,,0.30,Wunderground v.1.15,2013-03-21 04:05:00,
2013-03-21 00:06:00,57.5,54.0,29.80,NW,326,0.0,0.0,88,0.00,,,0.30,Wunderground v.1.15,2013-03-21 04:06:00,
2013-03-21 00:11:00,57.5,54.0,29.80,NW,326,0.0,0.0,88,0.00,,,0.30,Wunderground v.1.15,2013-03-21 04:11:00,
2013-03-21 00:16:00,57.3,53.8,29.81,NW,326,0.0,0.0,88,0.00,,,0.30,Wunderground v.1.15,2013-03-21 04:16:00,
2013-03-21 00:22:00,57.2,53.7,29.81,NW,326,0.0,0.0,88,0.00,,,0.30,Wunderground v.1.15,2013-03-21 04:22:00,
2013-03-21 00:27:00,57.0,53.5,29.81,NW,326,0.0,0.0,88,0.00,,,0.30,Wunderground v.1.15,2013-03-21 04:27:00,
2013-03-21 00:33:00,57.0,53.5,29.80,NW,326,0.0,0.0,88,0.00,,,0.30,Wunderground v.1.15,2013-03-21 04:33:00,
2013-03-21 00:39:00,57.0,53.5,29.80,NW,326,0.0,0.0,88,0.00,,,0.30,Wunderground v.1.15,2013-03-21 04:39:00,
2013-03-21 00:44:00,56.9,53.7,29.80,NW,326,0.0,0.0,89,0.00,,,0.30,Wunderground v.1.15,2013-03-21 04:44:00,
2013-03-21 00:49:00,57.0,53.8,29.81,NW,326,0.0,0.0,89,0.00,,,0.30,Wunderground v.1.15,2013-03-21 04:49:00,
2013-03-21 00:55:00,57.0,53.8,29.81,NW,326,0.0,0.0,89,0.00,,,0.30,Wunderground v.1.15,2013-03-21 04:55:00,
2013-03-21 01:00:00,57.2,54.0,29.81,NW,326,0.0,0.0,89,0.00,,,0.30,Wunderground v.1.15,2013-03-21 05:00:00,
2013-03-21 01:05:00,57.3,54.1,29.80,NW,326,0.0,0.0,89,0.00,,,0.00,Wunderground v.1.15,2013-03-21 05:05:00,
2013-03-21 01:10:00,57.5,54.3,29.80,NW,326,0.0,0.0,89,0.00,,,0.00,Wunderground v.1.15,2013-03-21 05:10:00,
2013-03-21 01:16:00,57.5,54.3,29.79,NW,326,0.0,0.0,89,0.00,,,0.00,Wunderground v.1.15,2013-03-21 05:16:00,
2013-03-21 01:21:00,57.5,54.3,29.79,NW,326,0.0,0.0,89,0.00,,,0.00,Wunderground v.1.15,2013-03-21 05:21:00,
2013-03-21 01:26:00,57.6,54.4,29.79,NW,326,0.0,0.0,89,0.00,,,0.00,Wunderground v.1.15,2013-03-21 05:26:00,
2013-03-21 01:32:00,57.6,54.4,29.79,NW,326,0.0,0.0,89,0.00,,,0.00,Wunderground v.1.15,2013-03-21 05:32:00,
2013-03-21 01:38:00,57.5,54.3,29.79,NW,326,0.0,0.0,89,0.00,,,0.01,Wunderground v.1.15,2013-03-21 05:38:00,
2013-03-21 01:43:00,57.5,54.3,29.79,NW,326,0.0,0.0,89,0.00,,,0.01,Wunderground v.1.15,2013-03-21 05:43:00,
2013-03-21 01:49:00,57.3,54.1,29.80,NW,326,0.0,0.0,89,0.00,,,0.01,Wunderground v.1.15,2013-03-21 05:49:00,
2013-03-21 01:54:00,57.3,54.1,29.80,NW,326,0.0,0.0,89,0.00,,,0.01,Wunderground v.1.15,2013-03-21 05:54:00,
2013-03-21 02:00:00,57.3,54.1,29.80,WNW,295,0.0,0.0,89,0.00,,,0.01,Wunderground v.1.15,2013-03-21 06:00:00,
2013-03-21 02:05:00,57.3,54.4,29.81,NNW,336,0.0,0.0,90,0.00,,,0.01,Wunderground v.1.15,2013-03-21 06:05:00,
2013-03-21 02:10:00,57.5,54.6,29.81,North,0,0.0,6.0,90,0.00,,,0.01,Wunderground v.1.15,2013-03-21 06:10:00,
2013-03-21 02:15:00,57.5,54.6,29.81,North,0,0.0,6.0,90,0.00,,,0.01,Wunderground v.1.15,2013-03-21 06:15:00,
2013-03-21 02:20:00,57.5,54.6,29.80,North,352,0.0,0.0,90,0.00,,,0.01,Wunderground v.1.15,2013-03-21 06:20:00,
2013-03-21 02:25:00,57.5,54.6,29.80,North,352,0.0,0.0,90,0.00,,,0.01,Wunderground v.1.15,2013-03-21 06:25:00,
2013-03-21 02:30:00,57.5,54.6,29.80,North,350,0.0,0.0,90,0.00,,,0.01,Wunderground v.1.15,2013-03-21 06:30:00,
2013-03-21 02:35:00,57.5,54.6,29.79,WNW,282,0.0,2.0,90,0.00,,,0.01,Wunderground v.1.15,2013-03-21 06:35:00,
2013-03-21 02:40:00,57.5,54.6,29.79,WNW,299,0.0,0.0,90,0.00,,,0.01,Wunderground v.1.15,2013-03-21 06:40:00,
2013-03-21 02:45:00,57.3,54.4,29.79,WNW,299,0.0,0.0,90,0.00,,,0.01,Wunderground v.1.15,2013-03-21 06:45:00,
2013-03-21 02:50:00,57.3,54.4,29.81,WNW,299,0.0,0.0,90,0.00,,,0.01,Wunderground v.1.15,2013-03-21 06:50:00,
2013-03-21 02:55:00,57.2,54.3,29.81,NW,305,0.0,0.0,90,0.00,,,0.01,Wunderground v.1.15,2013-03-21 06:55:00,
2013-03-21 03:00:00,57.0,54.1,29.81,NW,305,0.0,0.0,90,0.00,,,0.01,Wunderground v.1.15,2013-03-21 07:00:00,
2013-03-21 03:05:00,56.7,53.5,29.80,NW,313,0.0,1.0,89,0.00,,,0.01,Wunderground v.1.15,2013-03-21 07:05:00,
2013-03-21 03:10:00,56.6,53.4,29.80,NW,318,0.0,0.0,89,0.00,,,0.01,Wunderground v.1.15,2013-03-21 07:10:00,
2013-03-21 03:15:00,56.5,53.3,29.80,NW,319,0.0,0.0,89,0.00,,,0.01,Wunderground v.1.15,2013-03-21 07:15:00,
2013-03-21 03:20:00,56.3,53.1,29.80,NNE,21,0.0,0.0,89,0.00,,,0.01,Wunderground v.1.15,2013-03-21 07:20:00,
2013-03-21 03:25:00,56.2,53.0,29.80,North,354,0.0,0.0,89,0.00,,,0.01,Wunderground v.1.15,2013-03-21 07:25:00,
2013-03-21 03:30:00,56.0,52.8,29.80,WNW,302,0.0,0.0,89,0.00,,,0.01,Wunderground v.1.15,2013-03-21 07:30:00,
2013-03-21 03:35:00,55.9,52.7,29.80,WNW,302,0.0,0.0,89,0.00,,,0.01,Wunderground v.1.15,2013-03-21 07:35:00,
2013-03-21 03:40:00,55.6,52.4,29.80,WNW,302,0.0,0.0,89,0.00,,,0.01,Wunderground v.1.15,2013-03-21 07:40:00,
2013-03-21 03:45:00,55.4,52.2,29.80,WNW,302,0.0,0.0,89,0.00,,,0.01,Wunderground v.1.15,2013-03-21 07:45:00,
2013-03-21 03:50:00,55.1,51.9,29.80,NW,309,0.0,0.0,89,0.00,,,0.01,Wunderground v.1.15,2013-03-21 07:50:00,
2013-03-21 03:55:00,55.0,51.8,29.80,NNW,342,0.0,0.0,89,0.00,,,0.01,Wunderground v.1.15,2013-03-21 07:55:00,
2013-03-21 04:00:00,54.8,51.6,29.80,North,354,0.0,0.0,89,0.00,,,0.01,Wunderground v.1.15,2013-03-21 08:00:00,
2013-03-21 04:05:00,54.7,51.5,29.80,North,0,0.0,3.0,89,0.00,,,0.01,Wunderground v.1.15,2013-03-21 08:05:00,
2013-03-21 04:10:00,54.5,51.3,29.80,NNW,342,0.0,0.0,89,0.00,,,0.01,Wunderground v.1.15,2013-03-21 08:10:00,
2013-03-21 04:15:00,54.5,51.3,29.80,North,349,0.0,0.0,89,0.00,,,0.01,Wunderground v.1.15,2013-03-21 08:15:00,
2013-03-21 04:21:00,54.4,51.2,29.79,North,0,1.0,3.0,89,0.00,,,0.01,Wunderground v.1.15,2013-03-21 08:21:00,
2013-03-21 04:26:00,54.2,51.0,29.79,North,0,0.0,3.0,89,0.00,,,0.01,Wunderground v.1.15,2013-03-21 08:26:00,
2013-03-21 04:31:00,54.1,50.9,29.79,NNE,20,0.0,1.0,89,0.00,,,0.01,Wunderground v.1.15,2013-03-21 08:31:00,
2013-03-21 04:36:00,53.9,50.7,29.79,North,349,1.0,3.0,89,0.00,,,0.01,Wunderground v.1.15,2013-03-21 08:36:00,
2013-03-21 04:41:00,53.9,50.4,29.79,North,1,0.0,5.0,88,0.00,,,0.01,Wunderground v.1.15,2013-03-21 08:41:00,
2013-03-21 04:46:00,53.8,50.3,29.80,North,8,3.0,6.0,88,0.00,,,0.01,Wunderground v.1.15,2013-03-21 08:46:00,
2013-03-21 04:51:00,53.6,50.1,29.80,North,8,1.0,5.0,88,0.00,,,0.01,Wunderground v.1.15,2013-03-21 08:51:00,
2013-03-21 04:56:00,53.5,49.7,29.80,NNW,333,2.0,8.0,87,0.00,,,0.01,Wunderground v.1.15,2013-03-21 08:56:00,
2013-03-21 05:01:00,53.5,49.7,29.79,NNW,333,0.0,3.0,87,0.00,,,0.01,Wunderground v.1.15,2013-03-21 09:01:00,
2013-03-21 05:06:00,53.5,49.4,29.79,North,349,2.0,8.0,86,0.00,,,0.01,Wunderground v.1.15,2013-03-21 09:06:00,
2013-03-21 05:11:00,53.3,49.2,29.79,North,356,0.0,10.0,86,0.00,,,0.01,Wunderground v.1.15,2013-03-21 09:11:00,
2013-03-21 05:16:00,53.3,48.9,29.80,North,0,0.0,10.0,85,0.00,,,0.01,Wunderground v.1.15,2013-03-21 09:16:00,
2013-03-21 05:21:00,53.2,48.5,29.80,NNW,328,1.0,10.0,84,0.00,,,0.01,Wunderground v.1.15,2013-03-21 09:21:00,
2013-03-21 05:26:00,53.2,48.5,29.80,NNW,332,0.0,10.0,84,0.00,,,0.01,Wunderground v.1.15,2013-03-21 09:26:00,
2013-03-21 05:31:00,53.2,48.2,29.80,North,3,0.0,7.0,83,0.00,,,0.01,Wunderground v.1.15,2013-03-21 09:31:00,
2013-03-21 05:36:00,53.1,47.7,29.80,NNE,28,0.0,7.0,82,0.00,,,0.01,Wunderground v.1.15,2013-03-21 09:36:00,
2013-03-21 05:41:00,53.1,47.7,29.80,NNE,16,0.0,8.0,82,0.00,,,0.01,Wunderground v.1.15,2013-03-21 09:41:00,
2013-03-21 05:46:00,53.1,47.4,29.80,NNW,333,0.0,8.0,81,0.00,,,0.01,Wunderground v.1.15,2013-03-21 09:46:00,
2013-03-21 05:51:00,53.2,47.5,29.80,North,6,0.0,1.0,81,0.00,,,0.01,Wunderground v.1.15,2013-03-21 09:51:00,
2013-03-21 05:56:00,53.1,47.4,29.80,NNW,336,0.0,1.0,81,0.00,,,0.01,Wunderground v.1.15,2013-03-21 09:56:00,
2013-03-21 06:01:00,53.1,47.1,29.80,North,7,0.0,7.0,80,0.00,,,0.01,Wunderground v.1.15,2013-03-21 10:01:00,
2013-03-21 06:06:00,53.1,47.1,29.80,North,0,0.0,7.0,80,0.00,,,0.01,Wunderground v.1.15,2013-03-21 10:06:00,
2013-03-21 06:11:00,52.9,46.9,29.80,NW,319,0.0,1.0,80,0.00,,,0.01,Wunderground v.1.15,2013-03-21 10:11:00,
2013-03-21 06:16:00,52.9,46.6,29.81,WNW,285,5.0,7.0,79,0.00,,,0.01,Wunderground v.1.15,2013-03-21 10:16:00,
2013-03-21 06:21:00,52.9,46.2,29.81,North,10,0.0,4.0,78,0.00,,,0.01,Wunderground v.1.15,2013-03-21 10:21:00,
2013-03-21 06:26:00,52.9,46.2,29.81,WNW,285,0.0,4.0,78,0.00,,,0.01,Wunderground v.1.15,2013-03-21 10:26:00,
2013-03-21 06:31:00,52.9,46.2,29.81,NW,323,0.0,0.0,78,0.00,,,0.01,Wunderground v.1.15,2013-03-21 10:31:00,
2013-03-21 06:36:00,52.8,46.1,29.81,NW,304,0.0,0.0,78,0.00,,,0.01,Wunderground v.1.15,2013-03-21 10:36:00,
2013-03-21 06:41:00,52.8,46.1,29.81,NW,319,0.0,0.0,78,0.00,,,0.01,Wunderground v.1.15,2013-03-21 10:41:00,
2013-03-21 06:46:00,52.6,45.9,29.83,NW,320,0.0,0.0,78,0.00,,,0.01,Wunderground v.1.15,2013-03-21 10:46:00,
2013-03-21 06:51:00,52.5,46.2,29.83,NW,320,0.0,0.0,79,0.00,,,0.01,Wunderground v.1.15,2013-03-21 10:51:00,
2013-03-21 06:56:00,52.2,45.9,29.83,WNW,285,0.0,0.0,79,0.00,,,0.01,Wunderground v.1.15,2013-03-21 10:56:00,
2013-03-21 07:01:00,52.0,45.7,29.83,NW,319,0.0,0.0,79,0.00,,,0.01,Wunderground v.1.15,2013-03-21 11:01:00,
2013-03-21 07:07:00,51.7,45.4,29.83,WNW,302,0.0,0.0,79,0.00,,,0.01,Wunderground v.1.15,2013-03-21 11:07:00,
2013-03-21 07:12:00,51.6,45.3,29.83,NW,308,0.0,0.0,79,0.00,,,0.01,Wunderground v.1.15,2013-03-21 11:12:00,
2013-03-21 07:17:00,51.4,45.1,29.83,WNW,282,0.0,0.0,79,0.00,,,0.01,Wunderground v.1.15,2013-03-21 11:17:00,
2013-03-21 07:22:00,51.1,44.8,29.83,WNW,292,0.0,0.0,79,0.00,,,0.01,Wunderground v.1.15,2013-03-21 11:22:00,
2013-03-21 07:27:00,51.0,44.7,29.83,WNW,296,0.0,0.0,79,0.00,,,0.01,Wunderground v.1.15,2013-03-21 11:27:00,
2013-03-21 07:32:00,50.8,44.9,29.84,NW,305,0.0,0.0,80,0.00,,,0.01,Wunderground v.1.15,2013-03-21 11:32:00,
2013-03-21 07:37:00,50.5,44.6,29.84,NW,304,0.0,0.0,80,0.00,,,0.01,Wunderground v.1.15,2013-03-21 11:37:00,
2013-03-21 07:42:00,50.4,44.5,29.84,NW,320,0.0,0.0,80,0.00,,,0.01,Wunderground v.1.15,2013-03-21 11:42:00,
2013-03-21 07:47:00,50.2,44.3,29.84,NW,323,0.0,0.0,80,0.00,,,0.01,Wunderground v.1.15,2013-03-21 11:47:00,
2013-03-21 07:52:00,50.1,44.2,29.84,WNW,289,0.0,0.0,80,0.00,,,0.01,Wunderground v.1.15,2013-03-21 11:52:00,
2013-03-21 07:57:00,49.9,44.0,29.84,East,93,0.0,0.0,80,0.00,,,0.01,Wunderground v.1.15,2013-03-21 11:57:00,
2013-03-21 08:02:00,49.8,43.9,29.85,North,356,0.0,0.0,80,0.00,,,0.01,Wunderground v.1.15,2013-03-21 12:02:00,
2013-03-21 08:07:00,49.8,43.9,29.85,North,356,0.0,0.0,80,0.00,,,0.01,Wunderground v.1.15,2013-03-21 12:07:00,
2013-03-21 08:12:00,49.8,43.9,29.85,North,356,0.0,0.0,80,0.00,,,0.01,Wunderground v.1.15,2013-03-21 12:12:00,
2013-03-21 08:17:00,49.8,43.9,29.85,North,357,0.0,0.0,80,0.00,,,0.01,Wunderground v.1.15,2013-03-21 12:17:00,
2013-03-21 08:22:00,49.8,43.9,29.85,North,356,0.0,0.0,80,0.00,,,0.01,Wunderground v.1.15,2013-03-21 12:22:00,
2013-03-21 08:27:00,49.8,43.9,29.85,North,356,0.0,0.0,80,0.00,,,0.01,Wunderground v.1.15,2013-03-21 12:27:00,
2013-03-21 08:32:00,50.1,44.2,29.85,ENE,61,0.0,0.0,80,0.00,,,0.01,Wunderground v.1.15,2013-03-21 12:32:00,
2013-03-21 08:37:00,50.2,43.9,29.85,ENE,61,0.0,0.0,79,0.00,,,0.01,Wunderground v.1.15,2013-03-21 12:37:00,
2013-03-21 08:42:00,50.5,44.2,29.85,ENE,61,0.0,0.0,79,0.00,,,0.01,Wunderground v.1.15,2013-03-21 12:42:00,
2013-03-21 08:47:00,50.8,44.2,29.86,NW,316,0.0,3.0,78,0.00,,,0.01,Wunderground v.1.15,2013-03-21 12:47:00,
2013-03-21 08:52:00,51.1,44.5,29.86,North,6,0.0,3.0,78,0.00,,,0.01,Wunderground v.1.15,2013-03-21 12:52:00,
2013-03-21 08:58:00,51.4,44.4,29.86,North,4,0.0,3.0,77,0.00,,,0.01,Wunderground v.1.15,2013-03-21 12:58:00,
2013-03-21 09:03:00,51.7,44.7,29.86,North,6,0.0,2.0,77,0.00,,,0.01,Wunderground v.1.15,2013-03-21 13:03:00,
2013-03-21 09:08:00,52.0,44.7,29.86,NE,49,0.0,3.0,76,0.00,,,0.01,Wunderground v.1.15,2013-03-21 13:08:00,
2013-03-21 09:13:00,52.2,44.9,29.86,North,0,0.0,2.0,76,0.00,,,0.01,Wunderground v.1.15,2013-03-21 13:13:00,
2013-03-21 09:18:00,52.6,45.2,29.86,ENE,78,0.0,2.0,76,0.00,,,0.01,Wunderground v.1.15,2013-03-21 13:18:00,
2013-03-21 09:23:00,53.1,45.7,29.86,North,7,0.0,0.0,76,0.00,,,0.01,Wunderground v.1.15,2013-03-21 13:23:00,
2013-03-21 09:28:00,53.5,46.1,29.86,North,0,0.0,0.0,76,0.00,,,0.01,Wunderground v.1.15,2013-03-21 13:28:00,
2013-03-21 09:33:00,53.8,46.1,29.86,North,0,0.0,5.0,75,0.00,,,0.01,Wunderground v.1.15,2013-03-21 13:33:00,
2013-03-21 09:38:00,54.2,46.4,29.86,NE,34,0.0,5.0,75,0.00,,,0.01,Wunderground v.1.15,2013-03-21 13:38:00,
2013-03-21 09:43:00,55.0,46.5,29.86,North,0,0.0,5.0,73,0.00,,,0.01,Wunderground v.1.15,2013-03-21 13:43:00,
2013-03-21 09:48:00,55.7,47.2,29.87,NNW,342,5.0,7.0,73,0.00,,,0.01,Wunderground v.1.15,2013-03-21 13:48:00,
2013-03-21 09:53:00,56.6,47.3,29.87,NNW,337,1.0,10.0,71,0.00,,,0.01,Wunderground v.1.15,2013-03-21 13:53:00,
2013-03-21 09:58:00,57.3,47.6,29.87,North,0,0.0,10.0,70,0.00,,,0.01,Wunderground v.1.15,2013-03-21 13:58:00,
2013-03-21 10:03:00,58.0,47.9,29.87,North,0,0.0,7.0,69,0.00,,,0.01,Wunderground v.1.15,2013-03-21 14:03:00,
2013-03-21 10:08:00,58.6,48.1,29.87,NE,34,0.0,7.0,68,0.00,,,0.01,Wunderground v.1.15,2013-03-21 14:08:00,
2013-03-21 10:13:00,59.2,47.8,29.87,NNE,23,0.0,8.0,66,0.00,,,0.01,Wunderground v.1.15,2013-03-21 14:13:00,
2013-03-21 10:18:00,59.8,47.6,29.87,North,6,0.0,8.0,64,0.00,,,0.01,Wunderground v.1.15,2013-03-21 14:18:00,
2013-03-21 10:23:00,60.2,47.6,29.87,ENE,75,0.0,8.0,63,0.00,,,0.01,Wunderground v.1.15,2013-03-21 14:23:00,
2013-03-21 10:28:00,60.5,47.0,29.87,North,1,8.0,12.0,61,0.00,,,0.01,Wunderground v.1.15,2013-03-21 14:28:00,
2013-03-21 10:33:00,61.0,47.4,29.88,North,11,1.0,3.0,61,0.00,,,0.01,Wunderground v.1.15,2013-03-21 14:33:00,
2013-03-21 10:38:00,61.6,47.1,29.88,NNE,20,0.0,13.0,59,0.00,,,0.01,Wunderground v.1.15,2013-03-21 14:38:00,
2013-03-21 10:43:00,62.3,47.8,29.88,NNW,342,1.0,5.0,59,0.00,,,0.01,Wunderground v.1.15,2013-03-21 14:43:00,
2013-03-21 10:48:00,62.9,47.9,29.88,NNW,344,0.0,7.0,58,0.00,,,0.01,Wunderground v.1.15,2013-03-21 14:48:00,
2013-03-21 10:53:00,63.4,47.9,29.88,ENE,62,0.0,5.0,57,0.00,,,0.01,Wunderground v.1.15,2013-03-21 14:53:00,
2013-03-21 10:58:00,63.5,47.5,29.88,NNE,24,6.0,8.0,56,0.00,,,0.01,Wunderground v.1.15,2013-03-21 14:58:00,
2013-03-21 11:03:00,63.9,46.9,29.88,North,354,4.0,6.0,54,0.00,,,0.01,Wunderground v.1.15,2013-03-21 15:03:00,
2013-03-21 11:08:00,64.3,47.3,29.88,North,0,0.0,6.0,54,0.00,,,0.01,Wunderground v.1.15,2013-03-21 15:08:00,
2013-03-21 11:13:00,64.5,46.0,29.88,North,3,0.0,13.0,51,0.00,,,0.01,Wunderground v.1.15,2013-03-21 15:13:00,
2013-03-21 11:18:00,64.7,45.6,29.89,North,6,0.0,13.0,50,0.00,,,0.01,Wunderground v.1.15,2013-03-21 15:18:00,
2013-03-21 11:23:00,64.8,45.2,29.89,NNW,329,6.0,12.0,49,0.00,,,0.01,Wunderground v.1.15,2013-03-21 15:23:00,
2013-03-21 11:28:00,64.7,44.5,29.89,North,356,6.0,16.0,48,0.00,,,0.01,Wunderground v.1.15,2013-03-21 15:28:00,
2013-03-21 11:33:00,65.0,44.8,29.90,WNW,289,5.0,10.0,48,0.00,,,0.01,Wunderground v.1.15,2013-03-21 15:33:00,
2013-03-21 11:38:00,65.2,44.5,29.90,NNW,344,0.0,10.0,47,0.00,,,0.01,Wunderground v.1.15,2013-03-21 15:38:00,
2013-03-21 11:43:00,65.5,44.7,29.90,North,350,0.0,7.0,47,0.00,,,0.01,Wunderground v.1.15,2013-03-21 15:43:00,
2013-03-21 11:48:00,65.6,44.3,29.90,WNW,288,6.0,7.0,46,0.00,,,0.01,Wunderground v.1.15,2013-03-21 15:48:00,
2013-03-21 11:54:00,65.6,43.7,29.90,NW,320,10.0,13.0,45,0.00,,,0.01,Wunderground v.1.15,2013-03-21 15:54:00,
2013-03-21 11:59:00,65.6,43.7,29.90,WNW,296,0.0,13.0,45,0.00,,,0.01,Wunderground v.1.15,2013-03-21 15:59:00,
2013-03-21 12:04:00,65.8,43.9,29.90,North,7,10.0,10.0,45,0.00,,,0.01,Wunderground v.1.15,2013-03-21 16:04:00,
2013-03-21 12:09:00,66.1,42.9,29.90,North,0,0.0,10.0,43,0.00,,,0.01,Wunderground v.1.15,2013-03-21 16:09:00,
2013-03-21 12:14:00,66.3,43.1,29.90,North,0,0.0,10.0,43,0.00,,,0.01,Wunderground v.1.15,2013-03-21 16:14:00,
2013-03-21 12:19:00,66.6,43.4,29.89,NNE,14,0.0,10.0,43,0.00,,,0.01,Wunderground v.1.15,2013-03-21 16:19:00,
2013-03-21 12:24:00,66.8,43.0,29.89,NNW,328,0.0,7.0,42,0.00,,,0.01,Wunderground v.1.15,2013-03-21 16:24:00,
2013-03-21 12:29:00,66.9,43.7,29.89,NW,322,0.0,7.0,43,0.00,,,0.01,Wunderground v.1.15,2013-03-21 16:29:00,
2013-03-21 12:34:00,67.4,42.9,29.89,NNE,31,1.0,7.0,41,0.00,,,0.01,Wunderground v.1.15,2013-03-21 16:34:00,
2013-03-21 12:39:00,67.4,41.6,29.89,North,0,0.0,7.0,39,0.00,,,0.01,Wunderground v.1.15,2013-03-21 16:39:00,
2013-03-21 12:44:00,67.4,41.6,29.89,NNW,335,0.0,7.0,39,0.00,,,0.01,Wunderground v.1.15,2013-03-21 16:44:00,
2013-03-21 12:49:00,67.6,42.4,29.89,NNW,333,2.0,7.0,40,0.00,,,0.01,Wunderground v.1.15,2013-03-21 16:49:00,
2013-03-21 12:54:00,67.9,42.0,29.89,North,0,6.0,13.0,39,0.00,,,0.01,Wunderground v.1.15,2013-03-21 16:54:00,
2013-03-21 12:59:00,67.9,40.7,29.89,North,0,0.0,3.0,37,0.00,,,0.01,Wunderground v.1.15,2013-03-21 16:59:00,
2013-03-21 13:04:00,67.9,39.9,29.88,NNW,340,0.0,8.0,36,0.00,,,0.01,Wunderground v.1.15,2013-03-21 17:04:00,
2013-03-21 13:09:00,67.8,39.9,29.88,North,356,9.0,9.0,36,0.00,,,0.01,Wunderground v.1.15,2013-03-21 17:09:00,
2013-03-21 13:14:00,67.8,39.1,29.88,NE,37,6.0,13.0,35,0.00,,,0.01,Wunderground v.1.15,2013-03-21 17:14:00,
2013-03-21 13:19:00,67.8,39.1,29.88,North,0,0.0,3.0,35,0.00,,,0.01,Wunderground v.1.15,2013-03-21 17:19:00,
2013-03-21 13:24:00,67.9,39.2,29.88,North,357,10.0,11.0,35,0.00,,,0.01,Wunderground v.1.15,2013-03-21 17:24:00,
2013-03-21 13:29:00,67.9,39.2,29.88,North,352,9.0,9.0,35,0.00,,,0.01,Wunderground v.1.15,2013-03-21 17:29:00,
2013-03-21 13:34:00,68.1,38.7,29.87,NW,313,0.0,11.0,34,0.00,,,0.01,Wunderground v.1.15,2013-03-21 17:34:00,
2013-03-21 13:39:00,68.3,38.8,29.87,NNW,328,2.0,2.0,34,0.00,,,0.01,Wunderground v.1.15,2013-03-21 17:39:00,
2013-03-21 13:44:00,68.3,38.1,29.87,North,0,3.0,15.0,33,0.00,,,0.01,Wunderground v.1.15,2013-03-21 17:44:00,
2013-03-21 13:49:00,68.3,38.1,29.86,North,349,0.0,3.0,33,0.00,,,0.01,Wunderground v.1.15,2013-03-21 17:49:00,
2013-03-21 13:54:00,68.4,38.2,29.86,NNW,336,5.0,12.0,33,0.00,,,0.01,Wunderground v.1.15,2013-03-21 17:54:00,
2013-03-21 13:59:00,68.4,38.2,29.86,WNW,295,0.0,5.0,33,0.00,,,0.01,Wunderground v.1.15,2013-03-21 17:59:00,
2013-03-21 14:04:00,68.8,39.3,29.86,NNE,14,0.0,5.0,34,0.00,,,0.01,Wunderground v.1.15,2013-03-21 18:04:00,
2013-03-21 14:09:00,68.9,38.6,29.86,North,357,6.0,11.0,33,0.00,,,0.01,Wunderground v.1.15,2013-03-21 18:09:00,
2013-03-21 14:14:00,68.9,38.6,29.86,North,0,6.0,11.0,33,0.00,,,0.01,Wunderground v.1.15,2013-03-21 18:14:00,
2013-03-21 14:19:00,68.9,37.8,29.85,NNW,336,0.0,2.0,32,0.00,,,0.01,Wunderground v.1.15,2013-03-21 18:19:00,
2013-03-21 14:24:00,68.8,37.7,29.85,North,357,0.0,7.0,32,0.00,,,0.01,Wunderground v.1.15,2013-03-21 18:24:00,
2013-03-21 14:29:00,68.8,37.7,29.85,North,1,0.0,8.0,32,0.00,,,0.01,Wunderground v.1.15,2013-03-21 18:29:00,
2013-03-21 14:34:00,68.9,37.8,29.85,NNW,330,1.0,8.0,32,0.00,,,0.01,Wunderground v.1.15,2013-03-21 18:34:00,
2013-03-21 14:39:00,68.6,37.5,29.85,North,354,4.0,4.0,32,0.00,,,0.01,Wunderground v.1.15,2013-03-21 18:39:00,
2013-03-21 14:44:00,68.4,37.4,29.85,West,274,0.0,12.0,32,0.00,,,0.01,Wunderground v.1.15,2013-03-21 18:44:00,
2013-03-21 14:49:00,68.6,37.5,29.85,WNW,299,0.0,6.0,32,0.00,,,0.01,Wunderground v.1.15,2013-03-21 18:49:00,
2013-03-21 14:54:00,68.1,37.1,29.85,West,268,0.0,12.0,32,0.00,,,0.01,Wunderground v.1.15,2013-03-21 18:54:00,
2013-03-21 14:59:00,67.9,36.9,29.85,West,275,0.0,7.0,32,0.00,,,0.01,Wunderground v.1.15,2013-03-21 18:59:00,
2013-03-21 15:04:00,67.8,36.8,29.84,NNE,16,1.0,13.0,32,0.00,,,0.01,Wunderground v.1.15,2013-03-21 19:04:00,
2013-03-21 15:09:00,67.6,37.5,29.84,NNW,343,0.0,2.0,33,0.00,,,0.01,Wunderground v.1.15,2013-03-21 19:09:00,
2013-03-21 15:14:00,67.3,37.2,29.84,North,10,7.0,12.0,33,0.00,,,0.01,Wunderground v.1.15,2013-03-21 19:14:00,
2013-03-21 15:19:00,67.1,37.0,29.84,NW,306,0.0,3.0,33,0.00,,,0.01,Wunderground v.1.15,2013-03-21 19:19:00,
2013-03-21 15:24:00,67.3,38.0,29.84,NNW,337,0.0,11.0,34,0.00,,,0.01,Wunderground v.1.15,2013-03-21 19:24:00,
2013-03-21 15:29:00,67.3,38.7,29.84,WNW,288,10.0,14.0,35,0.00,,,0.01,Wunderground v.1.15,2013-03-21 19:29:00,
2013-03-21 15:34:00,67.3,38.7,29.84,North,0,0.0,14.0,35,0.00,,,0.01,Wunderground v.1.15,2013-03-21 19:34:00,
2013-03-21 15:39:00,66.9,38.3,29.84,NW,319,0.0,2.0,35,0.00,,,0.01,Wunderground v.1.15,2013-03-21 19:39:00,
2013-03-21 15:44:00,67.1,39.2,29.84,NNW,347,0.0,8.0,36,0.00,,,0.01,Wunderground v.1.15,2013-03-21 19:44:00,
2013-03-21 15:49:00,67.1,39.2,29.83,WNW,292,0.0,1.0,36,0.00,,,0.01,Wunderground v.1.15,2013-03-21 19:49:00,
2013-03-21 15:54:00,66.9,39.1,29.83,West,278,0.0,6.0,36,0.00,,,0.01,Wunderground v.1.15,2013-03-21 19:54:00,
2013-03-21 15:59:00,66.8,39.0,29.83,WSW,250,5.0,5.0,36,0.00,,,0.01,Wunderground v.1.15,2013-03-21 19:59:00,
2013-03-21 16:04:00,66.4,38.6,29.83,NW,315,3.0,7.0,36,0.00,,,0.01,Wunderground v.1.15,2013-03-21 20:04:00,
2013-03-21 16:09:00,66.4,38.6,29.83,West,264,6.0,8.0,36,0.00,,,0.01,Wunderground v.1.15,2013-03-21 20:09:00,
2013-03-21 16:14:00,66.1,38.4,29.83,WNW,294,0.0,8.0,36,0.00,,,0.01,Wunderground v.1.15,2013-03-21 20:14:00,
2013-03-21 16:19:00,66.0,38.3,29.83,West,272,2.0,7.0,36,0.00,,,0.01,Wunderground v.1.15,2013-03-21 20:19:00,
2013-03-21 16:24:00,65.8,37.4,29.83,North,0,0.0,7.0,35,0.00,,,0.01,Wunderground v.1.15,2013-03-21 20:24:00,
2013-03-21 16:29:00,65.6,37.2,29.83,WNW,296,3.0,5.0,35,0.00,,,0.01,Wunderground v.1.15,2013-03-21 20:29:00,
2013-03-21 16:34:00,65.5,37.1,29.83,NNE,14,6.0,13.0,35,0.00,,,0.01,Wunderground v.1.15,2013-03-21 20:34:00,
2013-03-21 16:39:00,65.5,37.8,29.83,NW,316,0.0,5.0,36,0.00,,,0.01,Wunderground v.1.15,2013-03-21 20:39:00,
2013-03-21 16:44:00,65.3,37.6,29.83,North,0,0.0,5.0,36,0.00,,,0.01,Wunderground v.1.15,2013-03-21 20:44:00,
2013-03-21 16:49:00,65.2,37.6,29.83,North,357,0.0,3.0,36,0.00,,,0.01,Wunderground v.1.15,2013-03-21 20:49:00,
2013-03-21 16:54:00,65.0,38.1,29.83,North,354,0.0,3.0,37,0.00,,,0.01,Wunderground v.1.15,2013-03-21 20:54:00,
2013-03-21 17:00:00,64.8,37.2,29.83,NNW,347,1.0,3.0,36,0.00,,,0.01,Wunderground v.1.15,2013-03-21 21:00:00,
2013-03-21 17:04:00,64.7,37.8,29.82,NNW,344,5.0,11.0,37,0.00,,,0.01,Wunderground v.1.15,2013-03-21 21:04:00,
2013-03-21 17:09:00,64.3,38.1,29.82,West,271,0.0,3.0,38,0.00,,,0.01,Wunderground v.1.15,2013-03-21 21:09:00,
2013-03-21 17:15:00,64.0,37.9,29.82,NNW,346,3.0,11.0,38,0.00,,,0.01,Wunderground v.1.15,2013-03-21 21:15:00,
2013-03-21 17:20:00,63.9,38.4,29.82,North,0,0.0,4.0,39,0.00,,,0.01,Wunderground v.1.15,2013-03-21 21:20:00,
2013-03-21 17:25:00,63.9,38.4,29.82,West,278,0.0,6.0,39,0.00,,,0.01,Wunderground v.1.15,2013-03-21 21:25:00,
2013-03-21 17:30:00,63.9,38.4,29.82,North,1,0.0,1.0,39,0.00,,,0.01,Wunderground v.1.15,2013-03-21 21:30:00,
2013-03-21 17:35:00,63.5,38.1,29.83,NNW,330,0.0,4.0,39,0.00,,,0.01,Wunderground v.1.15,2013-03-21 21:35:00,
2013-03-21 17:40:00,63.2,37.8,29.83,NW,305,0.0,6.0,39,0.00,,,0.01,Wunderground v.1.15,2013-03-21 21:40:00,
2013-03-21 17:45:00,63.1,38.4,29.83,WSW,247,0.0,8.0,40,0.00,,,0.01,Wunderground v.1.15,2013-03-21 21:45:00,
2013-03-21 17:50:00,62.7,38.0,29.83,WNW,284,0.0,1.0,40,0.00,,,0.01,Wunderground v.1.15,2013-03-21 21:50:00,
2013-03-21 17:55:00,62.4,38.4,29.83,WNW,285,0.0,3.0,41,0.00,,,0.01,Wunderground v.1.15,2013-03-21 21:55:00,
2013-03-21 18:00:00,62.3,38.9,29.83,North,0,5.0,7.0,42,0.00,,,0.01,Wunderground v.1.15,2013-03-21 22:00:00,
2013-03-21 18:05:00,62.1,39.3,29.83,WNW,292,0.0,7.0,43,0.00,,,0.01,Wunderground v.1.15,2013-03-21 22:05:00,
2013-03-21 18:10:00,62.0,38.6,29.83,North,0,0.0,6.0,42,0.00,,,0.01,Wunderground v.1.15,2013-03-21 22:10:00,
2013-03-21 18:15:00,61.6,38.3,29.83,NNW,340,0.0,6.0,42,0.00,,,0.01,Wunderground v.1.15,2013-03-21 22:15:00,
2013-03-21 18:20:00,61.5,38.8,29.82,NW,311,0.0,1.0,43,0.00,,,0.01,Wunderground v.1.15,2013-03-21 22:20:00,
2013-03-21 18:25:00,61.3,39.2,29.82,NW,311,0.0,5.0,44,0.00,,,0.01,Wunderground v.1.15,2013-03-21 22:25:00,
2013-03-21 18:30:00,61.0,38.9,29.82,NNW,342,0.0,0.0,44,0.00,,,0.01,Wunderground v.1.15,2013-03-21 22:30:00,
2013-03-21 18:35:00,60.7,39.2,29.82,WSW,246,0.0,2.0,45,0.00,,,0.01,Wunderground v.1.15,2013-03-21 22:35:00,
2013-03-21 18:40:00,60.5,39.0,29.82,North,359,0.0,0.0,45,0.00,,,0.01,Wunderground v.1.15,2013-03-21 22:40:00,
2013-03-21 18:45:00,60.2,39.3,29.82,NW,318,0.0,0.0,46,0.00,,,0.01,Wunderground v.1.15,2013-03-21 22:45:00,
2013-03-21 18:50:00,60.1,39.8,29.82,WNW,296,0.0,0.0,47,0.00,,,0.01,Wunderground v.1.15,2013-03-21 22:50:00,
2013-03-21 18:55:00,59.9,39.6,29.82,WSW,257,0.0,1.0,47,0.00,,,0.01,Wunderground v.1.15,2013-03-21 22:55:00,
2013-03-21 19:00:00,59.6,39.9,29.82,NNW,335,0.0,0.0,48,0.00,,,0.01,Wunderground v.1.15,2013-03-21 23:00:00,
2013-03-21 19:05:00,59.5,39.8,29.83,NW,306,0.0,2.0,48,0.00,,,0.01,Wunderground v.1.15,2013-03-21 23:05:00,
2013-03-21 19:10:00,59.2,39.5,29.83,WNW,299,0.0,0.0,48,0.00,,,0.01,Wunderground v.1.15,2013-03-21 23:10:00,
2013-03-21 19:15:00,59.0,39.3,29.83,NE,41,0.0,2.0,48,0.00,,,0.01,Wunderground v.1.15,2013-03-21 23:15:00,
2013-03-21 19:20:00,58.7,39.6,29.83,NNW,329,0.0,0.0,49,0.00,,,0.01,Wunderground v.1.15,2013-03-21 23:20:00,
2013-03-21 19:25:00,58.6,39.5,29.83,NW,325,0.0,0.0,49,0.00,,,0.01,Wunderground v.1.15,2013-03-21 23:25:00,
2013-03-21 19:30:00,58.3,39.2,29.83,NNW,329,0.0,0.0,49,0.00,,,0.01,Wunderground v.1.15,2013-03-21 23:30:00,
2013-03-21 19:35:00,58.1,39.5,29.83,NNW,329,0.0,0.0,50,0.00,,,0.01,Wunderground v.1.15,2013-03-21 23:35:00,
2013-03-21 19:40:00,58.0,39.5,29.83,NNW,329,0.0,0.0,50,0.00,,,0.01,Wunderground v.1.15,2013-03-21 23:40:00,
2013-03-21 19:45:00,57.8,39.8,29.83,NNW,329,0.0,0.0,51,0.00,,,0.01,Wunderground v.1.15,2013-03-21 23:45:00,
2013-03-21 19:50:00,57.6,39.6,29.83,NNW,329,0.0,0.0,51,0.00,,,0.01,Wunderground v.1.15,2013-03-21 23:50:00,
2013-03-21 19:55:00,57.5,39.5,29.83,NNW,329,0.0,0.0,51,0.00,,,0.01,Wunderground v.1.15,2013-03-21 23:55:00,
2013-03-21 20:00:00,57.2,39.7,29.83,NNW,329,0.0,0.0,52,0.00,,,0.01,Wunderground v.1.15,2013-03-22 00:00:00,
2013-03-21 20:05:00,57.0,40.0,29.83,NNW,329,0.0,0.0,53,0.00,,,0.01,Wunderground v.1.15,2013-03-22 00:05:00,
2013-03-21 20:10:00,56.7,39.7,29.83,NNW,329,0.0,0.0,53,0.00,,,0.01,Wunderground v.1.15,2013-03-22 00:10:00,
2013-03-21 20:15:00,56.5,40.0,29.83,NNW,329,0.0,0.0,54,0.00,,,0.01,Wunderground v.1.15,2013-03-22 00:15:00,
2013-03-21 20:20:00,56.3,39.9,29.84,NNW,329,0.0,0.0,54,0.00,,,0.01,Wunderground v.1.15,2013-03-22 00:20:00,
2013-03-21 20:25:00,56.0,40.1,29.84,NNW,329,0.0,0.0,55,0.00,,,0.01,Wunderground v.1.15,2013-03-22 00:25:00,
2013-03-21 20:30:00,55.7,39.8,29.84,NNW,329,0.0,0.0,55,0.00,,,0.01,Wunderground v.1.15,2013-03-22 00:30:00,
2013-03-21 20:35:00,55.4,39.5,29.83,NNW,329,0.0,0.0,55,0.00,,,0.01,Wunderground v.1.15,2013-03-22 00:35:00,
2013-03-21 20:40:00,55.1,39.7,29.83,NNW,329,0.0,0.0,56,0.00,,,0.01,Wunderground v.1.15,2013-03-22 00:40:00,
2013-03-21 20:45:00,54.8,39.8,29.83,NNW,329,0.0,0.0,57,0.00,,,0.01,Wunderground v.1.15,2013-03-22 00:45:00,
2013-03-21 20:50:00,54.7,39.8,29.83,NNW,329,0.0,0.0,57,0.00,,,0.01,Wunderground v.1.15,2013-03-22 00:50:00,
2013-03-21 20:55:00,54.4,39.5,29.83,NNW,329,0.0,0.0,57,0.00,,,0.01,Wunderground v.1.15,2013-03-22 00:55:00,
2013-03-21 21:00:00,54.1,39.2,29.83,NNW,329,0.0,0.0,57,0.00,,,0.01,Wunderground v.1.15,2013-03-22 01:00:00,
2013-03-21 21:05:00,53.9,39.5,29.84,NNW,329,0.0,0.0,58,0.00,,,0.01,Wunderground v.1.15,2013-03-22 01:05:00,
2013-03-21 21:10:00,53.6,39.6,29.84,NNW,329,0.0,0.0,59,0.00,,,0.01,Wunderground v.1.15,2013-03-22 01:10:00,
2013-03-21 21:16:00,53.5,39.5,29.84,NNW,329,0.0,0.0,59,0.00,,,0.01,Wunderground v.1.15,2013-03-22 01:16:00,
2013-03-21 21:21:00,53.2,39.2,29.84,NNW,329,0.0,0.0,59,0.00,,,0.01,Wunderground v.1.15,2013-03-22 01:21:00,
2013-03-21 21:26:00,53.1,39.1,29.84,NNW,329,0.0,0.0,59,0.00,,,0.01,Wunderground v.1.15,2013-03-22 01:26:00,
2013-03-21 21:31:00,52.9,39.4,29.84,NNW,329,0.0,0.0,60,0.00,,,0.01,Wunderground v.1.15,2013-03-22 01:31:00,
2013-03-21 21:36:00,52.8,39.7,29.84,NNW,329,0.0,0.0,61,0.00,,,0.01,Wunderground v.1.15,2013-03-22 01:36:00,
2013-03-21 21:41:00,52.5,39.4,29.84,NNW,329,0.0,0.0,61,0.00,,,0.01,Wunderground v.1.15,2013-03-22 01:41:00,
2013-03-21 21:46:00,52.3,39.2,29.84,NNW,329,0.0,0.0,61,0.00,,,0.01,Wunderground v.1.15,2013-03-22 01:46:00,
2013-03-21 21:51:00,52.0,39.4,29.84,NNW,329,0.0,0.0,62,0.00,,,0.01,Wunderground v.1.15,2013-03-22 01:51:00,
2013-03-21 21:56:00,51.9,38.9,29.84,NNW,329,0.0,0.0,61,0.00,,,0.01,Wunderground v.1.15,2013-03-22 01:56:00,
2013-03-21 22:01:00,51.7,39.1,29.84,NNW,329,0.0,0.0,62,0.00,,,0.01,Wunderground v.1.15,2013-03-22 02:01:00,
2013-03-21 22:06:00,51.4,38.8,29.84,NNW,329,0.0,0.0,62,0.00,,,0.01,Wunderground v.1.15,2013-03-22 02:06:00,
2013-03-21 22:11:00,51.3,39.1,29.84,NNW,329,0.0,0.0,63,0.00,,,0.01,Wunderground v.1.15,2013-03-22 02:11:00,
2013-03-21 22:16:00,51.3,39.5,29.84,NNW,329,0.0,0.0,64,0.00,,,0.01,Wunderground v.1.15,2013-03-22 02:16:00,
2013-03-21 22:21:00,51.1,39.3,29.84,NNW,329,0.0,0.0,64,0.00,,,0.01,Wunderground v.1.15,2013-03-22 02:21:00,
2013-03-21 22:26:00,51.1,39.3,29.84,NNW,329,0.0,0.0,64,0.00,,,0.01,Wunderground v.1.15,2013-03-22 02:26:00,
2013-03-21 22:31:00,50.8,39.1,29.84,NNW,329,0.0,0.0,64,0.00,,,0.01,Wunderground v.1.15,2013-03-22 02:31:00,
2013-03-21 22:36:00,50.7,39.4,29.84,NNW,329,0.0,0.0,65,0.00,,,0.01,Wunderground v.1.15,2013-03-22 02:36:00,
2013-03-21 22:42:00,50.5,39.2,29.84,NNW,329,0.0,0.0,65,0.00,,,0.01,Wunderground v.1.15,2013-03-22 02:42:00,
2013-03-21 22:47:00,50.4,39.1,29.84,NNW,329,0.0,0.0,65,0.00,,,0.01,Wunderground v.1.15,2013-03-22 02:47:00,
2013-03-21 22:52:00,50.2,39.3,29.84,NNW,329,0.0,0.0,66,0.00,,,0.01,Wunderground v.1.15,2013-03-22 02:52:00,
2013-03-21 22:57:00,50.1,39.2,29.84,NNW,329,0.0,0.0,66,0.00,,,0.01,Wunderground v.1.15,2013-03-22 02:57:00,
2013-03-21 23:02:00,49.9,39.0,29.85,NNW,329,0.0,0.0,66,0.00,,,0.01,Wunderground v.1.15,2013-03-22 03:02:00,
2013-03-21 23:07:00,49.8,38.9,29.85,NNW,329,0.0,0.0,66,0.00,,,0.01,Wunderground v.1.15,2013-03-22 03:07:00,
2013-03-21 23:12:00,49.6,39.1,29.85,NNW,329,0.0,0.0,67,0.00,,,0.01,Wunderground v.1.15,2013-03-22 03:12:00,
2013-03-21 23:17:00,49.6,39.1,29.85,NNW,329,0.0,0.0,67,0.00,,,0.01,Wunderground v.1.15,2013-03-22 03:17:00,
2013-03-21 23:22:00,49.6,39.5,29.85,NNW,329,0.0,0.0,68,0.00,,,0.01,Wunderground v.1.15,2013-03-22 03:22:00,
2013-03-21 23:27:00,49.6,39.5,29.85,NNW,329,0.0,0.0,68,0.00,,,0.01,Wunderground v.1.15,2013-03-22 03:27:00,
2013-03-21 23:32:00,49.5,39.4,29.85,NNW,329,0.0,0.0,68,0.00,,,0.01,Wunderground v.1.15,2013-03-22 03:32:00,
2013-03-21 23:37:00,49.4,39.7,29.85,NNW,329,0.0,0.0,69,0.00,,,0.01,Wunderground v.1.15,2013-03-22 03:37:00,
2013-03-21 23:42:00,49.4,39.3,29.85,NNW,329,0.0,0.0,68,0.00,,,0.01,Wunderground v.1.15,2013-03-22 03:42:00,
2013-03-21 23:47:00,49.1,39.0,29.85,NNW,329,0.0,0.0,68,0.00,,,0.01,Wunderground v.1.15,2013-03-22 03:47:00,
2013-03-21 23:52:00,48.9,39.2,29.85,NNW,329,0.0,0.0,69,0.00,,,0.01,Wunderground v.1.15,2013-03-22 03:52:00,
2013-03-21 23:57:00,48.8,39.1,29.85,NNW,329,0.0,0.0,69,0.00,,,0.01,Wunderground v.1.15,2013-03-22 03:57:00,